[[{"header":{"parameterUnit":"m.s-1","parameterCategory":1,"la1":30.2992,"la2":30.254,"lo1":-89.0895,"lo2":-89.0443,"dy":0.0025,"dx":0.0025,"nx":19,"ny":19,"refTime":"2026-04-04T09:00:00:Z","depth":0,"parameterNumber":2,"parameterNumberName":"U-component_of_WINDS"},"data":[0,0,0,-0.3459,-0.346,-0.3492,-0.3492,-0.3526,-0.3526,0,0,0,0,0,0,0,0,0,0,0,-0.3446,-0.3446,-0.3459,-0.346,-0.3492,-0.3492,-0.3526,-0.3526,0,0,0,0,0,0,0,0,0,0,0,-0.3446,-0.3446,-0.3446,-0.346,-0.3492,-0.3492,-0.3525,-0.3504,0,0,0,0,0,0,0,0,0,0,-0.3474,-0.3458,-0.3446,-0.3446,-0.346,-0.3492,-0.3492,-0.3503,-0.3505,-0.3508,0,-0.351,0,-0.3518,-0.3528,-0.3528,0,0,0,-0.3463,-0.3456,-0.3468,-0.3446,-0.3461,-0.3492,-0.3478,-0.3504,-0.3507,-0.3511,-0.351,-0.3512,-0.3519,-0.3528,-0.3528,-0.3533,-0.3533,0,0,-0.3461,-0.3449,-0.3466,-0.347,-0.3464,-0.3477,-0.3479,-0.3506,-0.3504,-0.351,-0.3513,-0.3519,-0.3528,-0.3528,-0.3534,-0.3533,0,0,0,-0.3454,-0.3448,-0.346,-0.3468,-0.3474,-0.3478,-0.3481,-0.3503,-0.3508,-0.3513,-0.352,-0.3528,-0.3528,-0.3534,-0.3534,-0.3516,0,0,0,-0.3453,-0.3444,-0.3459,-0.3452,-0.3474,-0.3489,-0.3477,-0.3506,-0.351,-0.352,-0.3528,-0.3529,-0.3534,-0.3534,-0.3516,-0.3509,0,0,0,-0.3445,-0.3443,-0.3446,-0.3451,-0.3464,-0.3489,-0.3496,-0.3507,-0.3513,-0.3528,-0.3529,-0.3534,-0.3534,-0.3517,-0.351,-0.3507,0,0,0,-0.3433,-0.343,-0.3446,-0.3445,-0.3464,-0.3478,-0.3495,-0.3506,-0.3516,-0.3528,-0.3534,-0.3534,-0.3517,-0.3511,-0.3508,-0.3502,-0.3498,0,0,-0.3423,-0.3428,-0.3429,-0.3444,-0.3451,-0.3474,-0.3479,-0.35,-0.3512,-0.3526,-0.3526,-0.3516,-0.3511,-0.3507,-0.3482,-0.3479,0,0,0,-0.3422,-0.3422,-0.3426,-0.3435,-0.3451,-0.3464,-0.3485,-0.3492,-0.3504,-0.3517,-0.3514,-0.3511,-0.351,-0.3508,-0.3505,-0.3504,-0.3532,-0.3532,-0.3532,-0.339,-0.3405,-0.3407,-0.3426,-0.3435,-0.3456,-0.3465,-0.3478,-0.3492,-0.3491,-0.3495,-0.3479,-0.3475,-0.3474,-0.3473,-0.3494,-0.3494,-0.3494,-0.3494,-0.3376,-0.3378,-0.3396,-0.3404,-0.342,-0.3427,-0.3448,-0.3457,-0.3466,-0.3477,-0.3476,-0.3487,-0.347,-0.347,-0.3492,-0.3493,-0.3493,-0.3493,-0.3493,-0.3356,-0.336,-0.3369,-0.3383,-0.3392,-0.3412,-0.3419,-0.3434,-0.3448,-0.3448,-0.3454,-0.3454,-0.3456,-0.3449,-0.3449,-0.3449,-0.3449,-0.3449,-0.3449,-0.3333,-0.3344,-0.3348,-0.3363,-0.3371,-0.3382,-0.3403,-0.3411,-0.3423,-0.3434,-0.3434,-0.3447,-0.3465,-0.3469,-0.3448,-0.3449,-0.3449,-0.3449,-0.3449,-0.3313,-0.3319,-0.3326,-0.3333,-0.3352,-0.336,-0.3379,-0.3393,-0.3401,-0.3404,-0.3418,-0.3429,-0.3436,-0.3438,-0.3442,-0.3415,-0.3415,-0.3415,-0.3415,-0.3296,-0.3301,-0.3311,-0.3321,-0.3333,-0.3351,-0.3357,-0.3373,-0.3391,-0.3397,-0.3403,-0.3409,-0.3411,-0.3417,-0.3419,-0.3423,-0.3392,-0.3392,-0.3392,-0.3285,-0.3291,-0.3294,-0.3311,-0.3327,-0.334,-0.3347,-0.3358,-0.338,-0.3391,-0.3402,-0.3403,-0.3413,-0.3415,-0.3427,-0.3431,-0.3438,0,0]},{"header":{"parameterUnit":"m.s-1","parameterCategory":1,"la1":30.2992,"la2":30.254,"lo1":-89.0895,"lo2":-89.0443,"dy":0.0025,"dx":0.0025,"nx":19,"ny":19,"refTime":"2026-04-04T09:00:00:Z","depth":0,"parameterNumber":3,"parameterNumberName":"V-component_of_WINDS"},"data":[0,0,0,4.0691,4.0695,4.0856,4.0857,4.1062,4.1064,0,0,0,0,0,0,0,0,0,0,0,4.0645,4.0646,4.0691,4.0695,4.0856,4.0857,4.1061,4.1064,0,0,0,0,0,0,0,0,0,0,0,4.0644,4.0646,4.0648,4.0696,4.0856,4.0857,4.1061,4.0939,0,0,0,0,0,0,0,0,0,0,4.0783,4.0742,4.0645,4.0648,4.0697,4.0856,4.0857,4.0933,4.0947,4.0989,0,4.1028,0,4.1049,4.1078,4.1078,0,0,0,4.0694,4.073,4.0773,4.0648,4.0698,4.0856,4.0783,4.0941,4.0956,4.1007,4.1031,4.1039,4.1053,4.1079,4.108,4.1331,4.1332,0,0,4.0685,4.0674,4.0762,4.0783,4.076,4.0778,4.0788,4.095,4.0975,4.1032,4.1044,4.1056,4.108,4.1082,4.133,4.1331,0,0,0,4.066,4.0668,4.0706,4.0774,4.0804,4.0783,4.0794,4.0968,4.0982,4.1046,4.1059,4.1081,4.1084,4.1329,4.133,4.1383,0,0,0,4.0655,4.0654,4.0703,4.0698,4.0801,4.0888,4.0809,4.097,4.0989,4.1058,4.1081,4.1086,4.1327,4.133,4.1378,4.1409,0,0,0,4.0634,4.0651,4.0675,4.0697,4.0766,4.0886,4.0909,4.0975,4.0997,4.1078,4.1087,4.1326,4.1329,4.1375,4.1403,4.1473,0,0,0,4.0608,4.0718,4.0676,4.0804,4.0765,4.0917,4.0908,4.1022,4.1098,4.1083,4.1327,4.133,4.1373,4.1399,4.1469,4.1531,4.1556,0,0,4.0741,4.0734,4.081,4.0777,4.0935,4.0894,4.1059,4.1137,4.1154,4.127,4.1277,4.138,4.1402,4.1472,4.1696,4.1716,0,0,0,4.0848,4.0903,4.0947,4.102,4.1084,4.114,4.1195,4.1224,4.1324,4.1212,4.1424,4.1438,4.1479,4.1509,4.1526,4.1562,4.1344,4.1343,4.1343,4.1022,4.1038,4.1165,4.1201,4.1271,4.1326,4.1384,4.1432,4.1427,4.1477,4.1512,4.1646,4.1681,4.1694,4.1731,4.1545,4.1545,4.1545,4.1546,4.1219,4.1299,4.129,4.1411,4.1426,4.1526,4.1583,4.1576,4.1671,4.1621,4.1658,4.1603,4.1715,4.1748,4.155,4.1549,4.1548,4.1548,4.1548,4.1336,4.1377,4.1411,4.1518,4.1598,4.1628,4.172,4.1731,4.1741,4.1777,4.1816,4.1815,4.1816,4.1795,4.1795,4.1796,4.1796,4.1796,4.1797,4.1443,4.148,4.1558,4.1634,4.1682,4.1746,4.1802,4.1849,4.1903,4.1903,4.1903,4.1893,4.1722,4.168,4.1804,4.1803,4.1802,4.1801,4.1801,4.164,4.1597,4.1716,4.1764,4.1855,4.1933,4.1945,4.2039,4.2079,4.2124,4.2105,4.1977,4.197,4.1957,4.1922,4.2101,4.2101,4.2101,4.2101,4.1739,4.1736,4.1861,4.1937,4.2012,4.2035,4.2168,4.2211,4.2249,4.2275,4.225,4.2204,4.219,4.2191,4.2173,4.214,4.2372,4.2372,4.2372,4.186,4.1866,4.1978,4.2016,4.2087,4.2148,4.2273,4.2359,4.2393,4.2383,4.2295,4.2284,4.2209,4.2184,4.2173,4.2145,4.2085,0,0]}]]